Regional Weather Roundup
Issued by NWS

Home | Current Version | Previous Version | Graphics & Text | Print | Product List | Glossary Off
Versions: 1 2 3 4 5 6 7 8 9 10 11 12 13 14 15 16 17 18 19 20 21 22 23 24 25 26 27 28 29 30 31 32 33 34 35 36 37 38 39 40 41 42 43 44 45 46 47 48 49 50

419
ASUS43 KDTX 240110
RWRMI
MICHIGAN HOURLY REGIONAL WEATHER ROUNDUP
NATIONAL WEATHER SERVICE DETROIT/PONTIAC MI
800 PM EST MON JAN 23 2017

NOTE: "FAIR" INDICATES FEW OR NO CLOUDS BELOW 12,000 FEET WITH NO
SIGNIFICANT WEATHER AND/OR OBSTRUCTION TO VISIBILITY.

MIZ047>049-052>055-059>063-066>070-074>076-081>083-240200-
SOUTHEAST LOWER MICHIGAN

CITY           SKY/WX    TMP DP  RH WIND       PRES   REMARKS
ADRIAN         CLOUDY    42  41  96 NE7       29.70R
ALMA           LGT RAIN  38  38  99 N3        29.73R
ANN ARBOR      CLOUDY    42  41  96 N8        29.69S
BAD AXE        CLOUDY    37  37 100 CALM      29.74R FOG
CARO           CLOUDY    38  38 100 E5        29.73R FOG     WCI  35
DETROIT CITY   CLOUDY    41  41 100 NE7       29.71R FOG
DETROIT        CLOUDY    42  41  96 NE7       29.71R
FLINT          CLOUDY    39  38  96 NE6       29.72R WCI  35
GROSSE ILE     CLOUDY    42  41  97 NE9       29.70R FOG
HILLSDALE      RAIN      37  37 100 CALM      29.69R
HOWELL         DRZL/FOG  39  38  97 N3        29.70R VSB 1/2

CITY           SKY/WX    TMP DP  RH WIND       PRES   REMARKS
JACKSON        LGT RAIN  40  38  93 N6        29.70R
LAMBERTVILLE   LGT RAIN  44  42  94 NE5       29.70R
LANSING        LGT RAIN  38  36  92 N5        29.72R WCI  34
LAPEER         CLOUDY    38  38 100 E5        29.72R FOG     WCI  35
MASON          LGT RAIN  38  38 100 N5        29.71R WCI  35
MONROE         CLOUDY    43  43 100 NE3       29.69R FOG
MT. CLEMENS    CLOUDY    40  40 100 N7        29.70R FOG     WCI  35
PONTIAC        FOG       38  36  92 NE6       29.69S VSB 1/2 WCI  33
PORT HOPE        N/A     37  36  96 E6        29.73R WCI  32
PORT HURON     CLOUDY    37  37 100 N3        29.73R FOG
TRI CITIES     LGT RAIN  36  36 100 NE9       29.74R VSB 1/2 WCI  29
MIDLAND        DRIZZLE   38  37  97 NE3       29.73S
TROY           CLOUDY    40  38  94 N6        29.73R FOG
SAGINAW HB     RAIN      36  34  93 N5        29.73R WCI  32
$$
MIZ043>046-050>051-056>058-064>065-071>073-077>080-240200-
SOUTHWEST LOWER MICHIGAN

CITY           SKY/WX    TMP DP  RH WIND       PRES   REMARKS
BATTLE CREEK   LGT RAIN  40  40 100 N6        29.72R
BENTON HARBOR  CLOUDY    39  36  89 NW6       29.77R WCI  35
BIG RAPIDS     MIX PCPN  38  37  97 N5        29.73R WCI  35
COLDWATER      MIX PCPN  40  40 100 N3        29.71R
FREMONT        CLOUDY    40  39  97 NW5       29.74R
HOLLAND        CLOUDY    39  37  92 NW6       29.75R WCI  35
GRAND RAPIDS   LGT RAIN  40  38  93 N5        29.73R FOG
IONIA          RAIN      38  38  99 N5        29.72R WCI  34
KALAMAZOO      LGT RAIN  41  38  89 N8        29.73R FOG
LUDINGTON      FOG       38  38 100 N3        29.76R VSB 1/4
MARSHALL       LGT RAIN  39  39  98 CALM      29.70R
MOUNT PLEASANT LGT RAIN  37  37  99 CALM      29.73R
MUSKEGON       CLOUDY    41  38  89 NW5       29.76R
SOUTH HAVEN    CLOUDY    38  38  99 N6        29.76R FOG     WCI  34
$$
MIZ016>042-240200-
NORTHERN LOWER MICHIGAN

CITY           SKY/WX    TMP DP  RH WIND       PRES   REMARKS
ALPENA         LGT RAIN  37  36  96 E6        29.77R FOG     WCI  32
BEAVER ISLAND  CLOUDY    33  33 100 NE5       29.77R FOG     WCI  29
BELLAIRE       LGT SNOW  35  35 100 CALM      29.75S
CADILLAC       DRZL/FOG  37  37  97 CALM      29.72R VSB 3/4
CHARLEVOIX     CLOUDY    35  35 100 CALM      29.78R FOG
FRANKFORT      FOG      N/A N/A N/A NW5       29.76R VSB 1
GAYLORD        LGT RAIN  36  33  89 NE5       29.72R WCI  32
GRAYLING       LGT RAIN  36  35  99 E3        29.74R
HARBOR SPRINGS LGT RAIN  35  35 100 NE6       29.75R WCI  30
HOUGHTON LAKE  LGT RAIN  36  35  96 E7        29.73R WCI  30
MANISTEE       CLOUDY    38  37  97 NW8       29.76R WCI  32
OSCODA         MIX PCPN  37  37  97 E6        29.75R WCI  33
PELLSTON       LGT RAIN  35  33  92 E5        29.76S FOG     WCI  31
ROGERS CITY    MIX PCPN  36  35  96 E6        29.78R VSB 1   WCI  31
TRAVERSE CITY  DRZL/FOG  38  37  97 W5        29.74R VSB 1/4 WCI  34
$$
MIZ007>008-015-240200-
EASTERN UPPER MICHIGAN

CITY           SKY/WX    TMP DP  RH WIND       PRES   REMARKS
KINROSS        LGT RAIN  33  33 100 E8        29.78S FOG     WCI  26
MACKINAC ISLAN CLOUDY    33  33 100 E8        29.76S FOG     WCI  26
NEWBERRY       CLOUDY    32  32  99 NE3       29.77S FOG
S. S. MARIE    LGT RAIN  35  34  96 E3        29.78S FOG
MUNISING         N/A     35  35 100 S3        29.78S
$$
MIZ004>006-011>014-085-240200-
CENTRAL UPPER MICHIGAN

CITY           SKY/WX    TMP DP  RH WIND       PRES   REMARKS
MANISTIQUE     CLOUDY    33  33  98 CALM      29.77F FOG
ESCANABA       MIX PCPN  35  35 100 CALM      29.79S VSB 3/4
SAWYER-GWINN   FOG       32  32 100 NE5       29.78R VSB 1   WCI  27
$$
MIZ001>003-009>011-084-240200-
WESTERN UPPER MICHIGAN

CITY           SKY/WX    TMP DP  RH WIND       PRES   REMARKS
IRON MOUNTAIN  CLOUDY    36  32  85 CALM      29.75F
HOUGHTON       CLOUDY    34  32  92 W6        29.77S FOG     WCI  29
COPPER HARBOR    N/A     35  35 100 CALM      29.79R
$$

ABBREVIATIONS USED IN REMARKS
   TC - TEMPERATURE IN CELSIUS
  WCI - WIND CHILL INDEX
   HX - HEAT INDEX
  VSB - VISIBILITY





USA.gov is the U.S. government's official web portal to all federal, state and local government web resources and services.